Port Lavaca, TX

2:24 AM CST on November 12, 2019 (GMT -0600)
Port Lavaca

Weather History for KPKV - October, 2019

Change the Weather History Date:

Monday, October 21, 2019

  Actual Average (KVCT) Record (KVCT)
Temperature  
Mean Temperature 73 °F -  
Max Temperature 83 °F 80 °F 96 °F (1926)
Min Temperature 63 °F 60 °F 41 °F (1976)
Cooling Degree Days 8    
Growing Degree Days 23 (Base 50)    
Moisture  
Dew Point 67 °F    
Average Humidity 73    
Maximum Humidity 93    
Minimum Humidity 41    
Precipitation  
Precipitation 0.11 in - - ()
Sea Level Pressure  
Sea Level Pressure 29.82 in    
Wind  
Wind Speed 10 mph (NE)    
Max Wind Speed 20 mph    
Max Gust Speed 24 mph    
Visibility 9 miles    
Events Rain    
Averages and records for this station are not official NWS values.
T = Trace of Precipitation, MM = Missing Value Source: NWS Daily Summary

Daily Weather History Graph

Daily Weather History Graph

Search for Another Location

Airport or City:

Astronomy

Oct. 21, 2019 Rise Set
Actual Time 7:31 AM CDT 6:51 PM CDT
Civil Twilight 7:07 AM CDT 7:15 PM CDT
Nautical Twilight 6:39 AM CDT 7:42 PM CDT
Astronomical Twilight 6:12 AM CDT 8:10 PM CDT
Moon 12:20 AM CDT (10/21) 2:33 PM CDT (10/21)
Length of Visible Light 12h 07m
Length of Day
11h 19m
Waning Gibbous, 48% of the Moon is Illuminated
Oct 21
Waning Gibbous
Oct 27
New
Nov 4
First Quarter
Nov 12
Full
Nov 19
Last Quarter

Hourly Weather History & Observations

Time (CDT) Temp. Heat Index Dew Point Humidity Pressure Visibility Wind Dir Wind Speed Gust Speed Precip Events Conditions
12:15 AM 83.3 °F 95.3 °F 79.7 °F 89% 29.75 in 7.0 mi South 9.2 mph - N/A   Overcast
12:35 AM 83.3 °F 95.3 °F 79.7 °F 89% 29.75 in 7.0 mi South 9.2 mph 17.3 mph N/A   Overcast
12:55 AM 83.1 °F 94.7 °F 79.7 °F 89% 29.74 in 7.0 mi South 10.4 mph - N/A   Mostly Cloudy
1:15 AM 82.6 °F 93.7 °F 79.7 °F 91% 29.73 in 7.0 mi South 12.7 mph 16.1 mph N/A   Mostly Cloudy
1:35 AM 82.4 °F 92.7 °F 79.3 °F 90% 29.72 in 7.0 mi South 10.4 mph 17.3 mph N/A   Mostly Cloudy
1:55 AM 82.6 °F 93.7 °F 79.7 °F 91% 29.72 in 7.0 mi South 10.4 mph 19.6 mph N/A   Overcast
2:35 AM 82.4 °F 93.1 °F 79.7 °F 91% 29.70 in 7.0 mi South 11.5 mph 17.3 mph N/A   Mostly Cloudy
2:55 AM 82.4 °F 93.1 °F 79.7 °F 91% 29.71 in 7.0 mi South 11.5 mph 18.4 mph N/A   Scattered Clouds
3:15 AM 82.0 °F 91.9 °F 79.3 °F 91% 29.69 in 7.0 mi South 10.4 mph - N/A   Scattered Clouds
3:35 AM 81.9 °F 91.3 °F 79.2 °F 91% 29.67 in 7.0 mi South 11.5 mph - N/A   Clear
3:55 AM 81.9 °F 91.3 °F 79.2 °F 91% 29.69 in 7.0 mi South 8.1 mph - N/A   Clear
4:15 AM 82.0 °F 92.2 °F 79.5 °F 92% 29.69 in 7.0 mi South 9.2 mph - N/A   Mostly Cloudy
4:35 AM 82.4 °F 93.1 °F 79.7 °F 91% 29.69 in 7.0 mi SSW 5.8 mph - N/A   Overcast
5:00 AM 82.4 °F 93.1 °F 79.7 °F 91% 29.70 in 7.0 mi SSW 5.8 mph - N/A   Overcast
5:15 AM 82.4 °F 93.4 °F 79.9 °F 92% 29.70 in 7.0 mi SSW 6.9 mph - N/A   Overcast
5:35 AM 82.4 °F 93.1 °F 79.7 °F 91% 29.69 in 5.0 mi SSW 5.8 mph - N/A   Overcast
5:55 AM 82.4 °F 93.1 °F 79.7 °F 91% 29.70 in 7.0 mi SSW 8.1 mph - N/A   Overcast
6:15 AM 80.8 °F 87.6 °F 77.4 °F 89% 29.68 in 7.0 mi South 12.7 mph 17.3 mph N/A   Scattered Clouds
6:35 AM 80.6 °F 87.1 °F 77.0 °F 89% 29.70 in 7.0 mi SSW 6.9 mph - N/A   Clear
6:55 AM 79.9 °F - 75.7 °F 87% 29.72 in 7.0 mi SW 12.7 mph 17.3 mph N/A   Mostly Cloudy
7:15 AM 78.8 °F - 76.1 °F 91% 29.74 in 7.0 mi SW 10.4 mph - 0.02 in Rain Light Rain
7:35 AM 79.2 °F - 76.5 °F 91% 29.77 in 7.0 mi North 19.6 mph 24.2 mph 0.02 in   Overcast
7:55 AM 72.9 °F - 70.0 °F 91% 29.79 in 7.0 mi North 11.5 mph - 0.02 in Rain Rain
8:15 AM 72.1 °F - 70.0 °F 93% 29.79 in 4.0 mi North 6.9 mph - 0.08 in Rain Light Rain
8:35 AM 72.1 °F - 70.2 °F 93% 29.81 in 10.0 mi NNE 8.1 mph - 0.09 in Rain Light Rain
8:55 AM 71.4 °F - 69.1 °F 92% 29.81 in 10.0 mi NNE 8.1 mph - 0.09 in   Scattered Clouds
9:15 AM 71.8 °F - 69.4 °F 92% 29.82 in 10.0 mi NE 8.1 mph - N/A   Mostly Cloudy
9:35 AM 71.6 °F - 68.9 °F 91% 29.84 in 10.0 mi ENE 8.1 mph - N/A   Scattered Clouds
9:55 AM 71.2 °F - 68.5 °F 91% 29.85 in 10.0 mi East 6.9 mph - N/A   Mostly Cloudy
10:15 AM 72.0 °F - 68.9 °F 90% 29.86 in 10.0 mi ENE 6.9 mph - N/A   Overcast
10:35 AM 72.9 °F - 68.7 °F 87% 29.87 in 10.0 mi NE 6.9 mph - N/A   Mostly Cloudy
10:55 AM 74.8 °F - 68.9 °F 82% 29.86 in 10.0 mi NNE 12.7 mph - N/A   Scattered Clouds
11:15 AM 77.0 °F - 69.3 °F 77% 29.85 in 10.0 mi NNE 17.3 mph - N/A   Mostly Cloudy
11:35 AM 76.3 °F - 68.0 °F 75% 29.86 in 10.0 mi NNE 17.3 mph 21.9 mph N/A   Scattered Clouds
11:55 AM 78.1 °F - 67.8 °F 71% 29.87 in 10.0 mi NNE 12.7 mph 19.6 mph N/A   Scattered Clouds
12:15 PM 79.0 °F - 68.0 °F 69% 29.87 in 10.0 mi NNE 11.5 mph 20.7 mph N/A   Scattered Clouds
12:35 PM 79.0 °F - 66.9 °F 66% 29.86 in 10.0 mi NNE 16.1 mph 20.7 mph N/A   Scattered Clouds
12:55 PM 79.7 °F - 65.7 °F 62% 29.86 in 10.0 mi NNE 16.1 mph - N/A   Scattered Clouds
1:15 PM 81.3 °F 83.6 °F 66.6 °F 61% 29.85 in 10.0 mi NNE 15.0 mph 18.4 mph N/A   Clear
1:40 PM 80.1 °F 81.2 °F 62.1 °F 54% 29.84 in 10.0 mi NNE 18.4 mph 23.0 mph N/A   Clear
1:55 PM 81.3 °F 82.3 °F 61.9 °F 52% 29.84 in 10.0 mi NE 17.3 mph 21.9 mph N/A   Clear
2:15 PM 81.5 °F 82.2 °F 61.3 °F 50% 29.84 in 10.0 mi NE 15.0 mph - N/A   Clear
2:35 PM 82.4 °F 83.4 °F 62.4 °F 51% 29.82 in 10.0 mi ENE 13.8 mph - N/A   Clear
2:55 PM 82.6 °F 83.6 °F 62.8 °F 51% 29.83 in 10.0 mi NE 10.4 mph - N/A   Clear
3:15 PM 82.9 °F 83.8 °F 62.8 °F 50% 29.83 in 10.0 mi NE 11.5 mph - N/A   Clear
3:35 PM 82.6 °F 83.1 °F 61.2 °F 48% 29.83 in 10.0 mi NNE 11.5 mph - N/A   Clear
3:55 PM 83.3 °F 83.1 °F 58.6 °F 43% 29.83 in 10.0 mi NNE 13.8 mph - N/A   Clear
4:15 PM 83.1 °F 82.9 °F 58.3 °F 43% 29.83 in 10.0 mi NNE 9.2 mph 17.3 mph N/A   Clear
4:35 PM 83.3 °F 83.2 °F 59.0 °F 44% 29.82 in 10.0 mi NE 8.1 mph - N/A   Clear
4:55 PM 83.8 °F 83.3 °F 57.9 °F 41% 29.83 in 10.0 mi North 10.4 mph 17.3 mph N/A   Clear
5:15 PM 83.3 °F 82.8 °F 57.2 °F 41% 29.83 in 10.0 mi North 10.4 mph 16.1 mph N/A   Clear
5:35 PM 83.3 °F 82.8 °F 57.4 °F 41% 29.84 in 10.0 mi NNE 10.4 mph - N/A   Clear
5:55 PM 82.0 °F 81.6 °F 56.5 °F 41% 29.84 in 10.0 mi NNE 10.4 mph - N/A   Clear
6:15 PM 81.5 °F 81.4 °F 57.2 °F 43% 29.84 in 10.0 mi NE 9.2 mph - N/A   Clear
6:35 PM 80.6 °F 80.7 °F 56.7 °F 44% 29.86 in 10.0 mi NE 8.1 mph - N/A   Clear
6:55 PM 78.4 °F - 57.0 °F 48% 29.87 in 10.0 mi NE 6.9 mph - N/A   Clear
7:15 PM 76.1 °F - 59.0 °F 55% 29.89 in 10.0 mi NE 6.9 mph - N/A   Clear
7:35 PM 75.0 °F - 59.0 °F 57% 29.90 in 10.0 mi NNE 5.8 mph - N/A   Clear
7:50 PM 73.2 °F - 59.2 °F 61% 29.91 in 10.0 mi NNE 6.9 mph - N/A   Clear
8:35 PM 70.7 °F - 58.3 °F 65% 29.94 in 10.0 mi NNE 6.9 mph - N/A   Clear
8:55 PM 70.2 °F - 56.8 °F 63% 29.95 in 10.0 mi NNE 8.1 mph - N/A   Clear
9:15 PM 69.6 °F - 55.8 °F 61% 29.96 in 10.0 mi NNE 5.8 mph - N/A   Clear
9:35 PM 68.0 °F - 55.6 °F 64% 29.97 in 10.0 mi NNE 5.8 mph - N/A   Clear
10:00 PM 66.0 °F - 55.4 °F 69% 29.98 in 10.0 mi North 8.1 mph - N/A   Clear
10:15 PM 65.5 °F - 55.4 °F 70% 29.99 in 10.0 mi North 8.1 mph - N/A   Clear
10:35 PM 64.9 °F - 55.6 °F 72% 30.00 in 10.0 mi North 8.1 mph - N/A   Clear
10:55 PM 64.2 °F - 55.4 °F 73% 30.00 in 10.0 mi North 10.4 mph - N/A   Clear
11:15 PM 64.0 °F - 54.9 °F 72% 30.01 in 10.0 mi North 9.2 mph - N/A   Clear
11:40 PM 63.9 °F - 54.1 °F 71% 30.02 in 10.0 mi NNE 8.1 mph - N/A   Clear
11:55 PM 64.4 °F - 54.5 °F 70% 30.02 in 10.0 mi NNE 8.1 mph - N/A   Clear